Location: Aalsum
(53.3404°N, 6.0062°E)
Time: 10:30:44
(UTC+00:00)

Cosmos 2278 - Pass Details

Date: 28 January 2023
Orbit: 838 x 853 km, 71.1° (Epoch: 19 March)

Event Time Altitude Azimuth Distance (km) Brightness Sun altitude
Rises 19:24:19 0° 225° (SW) 3,392 7.3 -28.6°
Reaches altitude 10° 19:26:48 10° 229° (SW) 2,463 6.6 -29.0°
Maximum altitude 19:32:22 57° 308° (NW) 997 4.2 -29.8°
Enters shadow 19:33:31 48° 351° (N) 1,102 4.3 -30.0°
